Surface/Precipitation History
12/09/2016 13:26  to  12/10/2016 13:26
Change End Date:
Date/Time
(MST)
Sf
Temp Chem Water Layer Surface Precipitation
Sfc Pvt Sub Frz Factor Pct Dpth DpthThk IcePct Cond Salin FI Type Intens Accum Rate
12/10/2016 13:14 Ice Warning 19.4F - - 32F 75 0% - - 100% 0 mhos 0 - Yes - - -
12/10/2016 13:07 Ice Warning 19.2F - - 32F 75 0% - - 100% 0 mhos 0 - None None - -
12/10/2016 12:59 Ice Warning 18.3F - - 32F 80 0% - - 100% 0 mhos 0 - None None - -
12/10/2016 12:57 Ice Warning 18.3F - - 32F 75 0% - - 100% 0 mhos 0 - None None - -
12/10/2016 12:46 Ice Warning 19.4F - - 32F 75 0% - - 100% 0 mhos 0 - None None - -
12/10/2016 12:44 Ice Warning 19.8F - - 32F 75 0% - - 100% 0 mhos 0 - None None - -
12/10/2016 12:36 Ice Warning 19.8F - - 32F 80 0% - - 100% 0 mhos 0 - Yes - - -
12/10/2016 12:29 Ice Warning 19.6F - - 32F 85 0% - - 100% 0 mhos 0 - None None - -
12/10/2016 12:26 Ice Warning 19.4F - - 32F 80 0% - - 100% 0 mhos 0 - Yes - - -
12/10/2016 12:16 Ice Warning 19.6F - - 32F 75 0% - - 100% 0 mhos 0 - Yes - - -
12/10/2016 12:14 Ice Warning 19.8F - - 32F 75 0% - - 100% 0 mhos 0 - Yes - - -
12/10/2016 12:06 Ice Warning 19.4F - - 32F 85 0% - - 100% 0 mhos 0 - Yes - - -
12/10/2016 11:59 Ice Warning 19.6F - - 32F 75 0% - - 100% 0 mhos 0 - Yes - - -
12/10/2016 11:56 Ice Warning 19.6F - - 32F 75 0% - - 100% 0 mhos 0 - Yes - - -
12/10/2016 11:46 Ice Warning 19.6F - - 32F 75 0% - - 100% 0 mhos 0 - Yes - - -
Date/Time
(MST)
Sf
Temp Chem Water Layer Surface Precipitation
Sfc Pvt Sub Frz Factor Pct Dpth DpthThk IcePct Cond Salin FI Type Intens Accum Rate
12/10/2016 11:44 Ice Warning 19.6F - - 32F 80 0% - - 100% 0 mhos 0 - Yes - - -
12/10/2016 11:36 Ice Warning 19.2F - - 32F 75 0% - - 100% 0 mhos 0 - Yes - - -
12/10/2016 11:28 Ice Warning 19.2F - - 32F 75 0% - - 100% 0 mhos 0 - Yes - - -
12/10/2016 11:26 Ice Warning 19.0F - - 32F 70 0% - - 100% 0 mhos 0 - Yes - - -
12/10/2016 11:16 Ice Warning 18.9F - - 32F 70 0% - - 100% 0 mhos 0 - None None - -
12/10/2016 11:13 Ice Warning 18.7F - - 32F 70 0% - - 100% 0 mhos 0 - None None - -
12/10/2016 11:06 Ice Warning 18.3F - - 32F 85 0% - - 100% 0 mhos 0 - None None - -
12/10/2016 10:58 Ice Warning 17.6F - - 32F 75 0% - - 100% 0 mhos 0 - None None - -
12/10/2016 10:56 Ice Warning 17.4F - - 32F 70 0% - - 100% 0 mhos 0 - None None - -
12/10/2016 10:46 Ice Warning 16.9F - - 32F 70 0% - - 100% 0 mhos 0 - None None - -
12/10/2016 10:43 Ice Warning 16.7F - - 32F 70 0% - - 100% 0 mhos 0 - None None - -
12/10/2016 10:36 Ice Warning 15.4F - - 32F 65 0% - - 100% 0 mhos 0 - Yes - - -
12/10/2016 10:29 Ice Warning 15.6F - - 32F 70 0% - - 100% 0 mhos 0 - None None - -
12/10/2016 10:26 Ice Warning 15.6F - - 32F 65 0% - - 100% 0 mhos 0 - None None - -
12/10/2016 10:16 Ice Warning 16.2F - - 32F 70 0% - - 100% 0 mhos 0 - Yes - - -
Date/Time
(MST)
Sf
Temp Chem Water Layer Surface Precipitation
Sfc Pvt Sub Frz Factor Pct Dpth DpthThk IcePct Cond Salin FI Type Intens Accum Rate
12/10/2016 10:13 Ice Warning 16.0F - - 32F 70 0% - - 100% 0 mhos 0 - Yes - - -
12/10/2016 10:06 Ice Warning 15.8F - - 32F 70 0% - - 100% 0 mhos 0 - Yes - - -
12/10/2016 09:58 Ice Warning 15.4F - - 32F 70 0% - - 100% 0 mhos 0 - Yes - - -
12/10/2016 09:55 Ice Warning 15.4F - - 32F 75 0% - - 100% 0 mhos 0 - Yes - - -
12/10/2016 09:45 Ice Warning 15.3F - - 32F 65 0% - - 100% 0 mhos 0 - Yes - - -
12/10/2016 09:44 Ice Warning 15.4F - - 32F 70 0% - - 100% 0 mhos 0 - Yes - - -
12/10/2016 09:35 Ice Warning 15.3F - - 32F 65 0% - - 100% 0 mhos 0 - Yes - - -
12/10/2016 09:29 Ice Warning 15.3F - - 32F 65 0% - - 100% 0 mhos 0 - Yes - - -
12/10/2016 09:25 Ice Warning 15.3F - - 32F 65 0% - - 100% 0 mhos 0 - Yes - - -
12/10/2016 09:15 Ice Warning 15.3F - - 32F 65 0% - - 100% 0 mhos 0 - None None - -
12/10/2016 09:13 Ice Warning 15.3F - - 32F 70 0% - - 100% 0 mhos 0 - None None - -
12/10/2016 09:05 Ice Warning 14.9F - - 32F 70 0% - - 100% 0 mhos 0 - Yes - - -
12/10/2016 08:59 Ice Warning 14.7F - - 32F 65 0% - - 100% 0 mhos 0 - Yes - - -
12/10/2016 08:55 Ice Warning 14.7F - - 32F 65 0% - - 100% 0 mhos 0 - Yes - - -
12/10/2016 08:45 Ice Warning 14.2F - - 32F 95 0% - - 100% 0 mhos 0 - Yes - - -
Date/Time
(MST)
Sf
Temp Chem Water Layer Surface Precipitation
Sfc Pvt Sub Frz Factor Pct Dpth DpthThk IcePct Cond Salin FI Type Intens Accum Rate
12/10/2016 08:44 Ice Warning 14.4F - - 32F 65 0% - - 100% 0 mhos 0 - None None - -
12/10/2016 08:35 Ice Warning 13.8F - - 32F 90 0% - - 100% 0 mhos 0 - None None - -
12/10/2016 08:29 Ice Warning 13.8F - - 32F 80 0% - - 100% 0 mhos 0 - Yes - - -
12/10/2016 08:25 Ice Warning 13.8F - - 32F 80 0% - - 100% 0 mhos 0 - None None - -
12/10/2016 08:15 Ice Warning 13.6F - - 32F 70 0% - - 100% 0 mhos 0 - None None - -
12/10/2016 08:14 Ice Warning 13.6F - - 32F 65 0% - - 100% 0 mhos 0 - None None - -
12/10/2016 08:05 Ice Warning 13.5F - - 32F 70 0% - - 100% 0 mhos 0 - None None - -
12/10/2016 07:59 Ice Warning 13.3F - - 32F 65 0% - - 100% 0 mhos 0 - None None - -
12/10/2016 07:55 Ice Warning 13.3F - - 32F 65 0% - - 100% 0 mhos 0 - None None - -
12/10/2016 07:45 Ice Warning 13.1F - - 32F 65 0% - - 100% 0 mhos 0 - None None - -
12/10/2016 07:43 Ice Warning 13.1F - - 32F 65 0% - - 100% 0 mhos 0 - None None - -
12/10/2016 07:35 Ice Warning 12.6F - - 32F 65 0% - - 100% 0 mhos 0 - None None - -
12/10/2016 07:28 Ice Warning 12.4F - - 32F 75 0% - - 100% 0 mhos 0 - None None - -
12/10/2016 07:25 Ice Warning 12.6F - - 32F 60 0% - - 100% 0 mhos 0 - None None - -
12/10/2016 07:14 Ice Warning 12.9F - - 32F 65 0% - - 100% 0 mhos 0 - None None - -
Date/Time
(MST)
Sf
Temp Chem Water Layer Surface Precipitation
Sfc Pvt Sub Frz Factor Pct Dpth DpthThk IcePct Cond Salin FI Type Intens Accum Rate
12/10/2016 07:13 Ice Warning 12.9F - - 32F 65 0% - - 100% 0 mhos 0 - None None - -
12/10/2016 07:04 Ice Warning 13.3F - - 32F 65 0% - - 100% 0 mhos 0 - None None - -
12/10/2016 06:58 Ice Warning 13.1F - - 32F 65 0% - - 100% 0 mhos 0 - Yes - - -
12/10/2016 06:54 Ice Warning 13.1F - - 32F 65 0% - - 100% 0 mhos 0 - None None - -
12/10/2016 06:44 Ice Warning 13.3F - - 32F 65 0% - - 100% 0 mhos 0 - Yes - - -
12/10/2016 06:43 Ice Warning 13.3F - - 32F 65 0% - - 100% 0 mhos 0 - Yes - - -
12/10/2016 06:34 Ice Warning 13.3F - - 32F 65 0% - - 100% 0 mhos 0 - None None - -
12/10/2016 06:28 Ice Warning 13.3F - - 32F 65 0% - - 100% 0 mhos 0 - None None - -
12/10/2016 06:24 Ice Warning 13.1F - - 32F 65 0% - - 100% 0 mhos 0 - None None - -
12/10/2016 06:14 Ice Warning 12.6F - - 32F 65 0% - - 100% 0 mhos 0 - None None - -
12/10/2016 06:13 Ice Warning 12.6F - - 32F 65 0% - - 100% 0 mhos 0 - None None - -
12/10/2016 06:04 Ice Warning 12.4F - - 32F 60 0% - - 100% 0 mhos 0 - None None - -
12/10/2016 05:58 Ice Warning 12.4F - - 32F 60 0% - - 100% 0 mhos 0 - None None - -
12/10/2016 05:54 Ice Warning 12.2F - - 32F 60 0% - - 100% 0 mhos 0 - None None - -
12/10/2016 05:44 Ice Warning 12.4F - - 32F 60 0% - - 100% 0 mhos 0 - None None - -
Date/Time
(MST)
Sf
Temp Chem Water Layer Surface Precipitation
Sfc Pvt Sub Frz Factor Pct Dpth DpthThk IcePct Cond Salin FI Type Intens Accum Rate
12/10/2016 05:44 Ice Warning 12.4F - - 32F 60 0% - - 100% 0 mhos 0 - None None - -
12/10/2016 05:34 Ice Warning 12.6F - - 32F 60 0% - - 100% 0 mhos 0 - None None - -
12/10/2016 05:28 Ice Warning 12.6F - - 32F 60 0% - - 100% 0 mhos 0 - None None - -
12/10/2016 05:24 Ice Warning 12.6F - - 32F 60 0% - - 100% 0 mhos 0 - None None - -
12/10/2016 05:14 Ice Warning 12.2F - - 32F 60 0% - - 100% 0 mhos 0 - Yes - - -
12/10/2016 05:13 Ice Warning 12.2F - - 32F 60 0% - - 100% 0 mhos 0 - Yes - - -
12/10/2016 05:04 Ice Warning 12.7F - - 32F 65 0% - - 100% 0 mhos 0 - None None - -
12/10/2016 04:58 Ice Warning 12.9F - - 32F 70 0% - - 100% 0 mhos 0 - Yes - - -
12/10/2016 04:54 Ice Warning 12.9F - - 32F 70 0% - - 100% 0 mhos 0 - Yes - - -
12/10/2016 04:44 Ice Warning 13.1F - - 32F 75 0% - - 100% 0 mhos 0 - None None - -
12/10/2016 04:44 Ice Warning 13.1F - - 32F 75 0% - - 100% 0 mhos 0 - None None - -
12/10/2016 04:34 Ice Warning 12.9F - - 32F 75 0% - - 100% 0 mhos 0 - Yes - - -
12/10/2016 04:28 Ice Warning 12.6F - - 32F 70 0% - - 100% 0 mhos 0 - Yes - - -
12/10/2016 04:23 Ice Warning 12.7F - - 32F 70 0% - - 100% 0 mhos 0 - None None - -
12/10/2016 04:13 Ice Warning 12.7F - - 32F 70 0% - - 100% 0 mhos 0 - None None - -
Date/Time
(MST)
Sf
Temp Chem Water Layer Surface Precipitation
Sfc Pvt Sub Frz Factor Pct Dpth DpthThk IcePct Cond Salin FI Type Intens Accum Rate
12/10/2016 04:13 Ice Warning 12.7F - - 32F 70 0% - - 100% 0 mhos 0 - None None - -
12/10/2016 04:03 Ice Warning 12.4F - - 32F 70 0% - - 100% 0 mhos 0 - Yes - - -
12/10/2016 03:58 Ice Warning 12.4F - - 32F 70 0% - - 100% 0 mhos 0 - Yes - - -
12/10/2016 03:53 Ice Warning 12.6F - - 32F 70 0% - - 100% 0 mhos 0 - Yes - - -
12/10/2016 03:43 Ice Warning 12.6F - - 32F 70 0% - - 100% 0 mhos 0 - Yes - - -
12/10/2016 03:43 Ice Warning 12.6F - - 32F 70 0% - - 100% 0 mhos 0 - Yes - - -
12/10/2016 03:33 Ice Warning 12.7F - - 32F 70 0% - - 100% 0 mhos 0 - Yes - - -
12/10/2016 03:28 Ice Warning 12.6F - - 32F 70 0% - - 100% 0 mhos 0 - Yes - - -
12/10/2016 03:23 Ice Warning 12.6F - - 32F 70 0% - - 100% 0 mhos 0 - None None - -
12/10/2016 03:13 Ice Warning 12.2F - - 32F 70 0% - - 100% 0 mhos 0 - Yes - - -
12/10/2016 03:13 Ice Warning 12.2F - - 32F 70 0% - - 100% 0 mhos 0 - Yes - - -
12/10/2016 03:03 Ice Warning 11.8F - - 32F 70 0% - - 100% 0 mhos 0 - None None - -
12/10/2016 02:58 Ice Warning 11.8F - - 32F 70 0% - - 100% 0 mhos 0 - Yes - - -
12/10/2016 02:53 Ice Warning 11.8F - - 32F 70 0% - - 100% 0 mhos 0 - None None - -
12/10/2016 02:43 Ice Warning 11.7F - - 32F 70 0% - - 100% 0 mhos 0 - None None - -
Date/Time
(MST)
Sf
Temp Chem Water Layer Surface Precipitation
Sfc Pvt Sub Frz Factor Pct Dpth DpthThk IcePct Cond Salin FI Type Intens Accum Rate
12/10/2016 02:43 Ice Warning 11.7F - - 32F 70 0% - - 100% 0 mhos 0 - None None - -
12/10/2016 02:33 Ice Warning 11.1F - - 32F 65 0% - - 100% 0 mhos 0 - None None - -
12/10/2016 02:28 Ice Warning 10.9F - - 32F 65 0% - - 100% 0 mhos 0 - None None - -
12/10/2016 02:23 Ice Warning 10.8F - - 32F 65 0% - - 100% 0 mhos 0 - None None - -
12/10/2016 02:13 Ice Warning 10.6F - - 32F 65 0% - - 100% 0 mhos 0 - None None - -
12/10/2016 02:13 Ice Warning 10.6F - - 32F 65 0% - - 100% 0 mhos 0 - None None - -
12/10/2016 02:03 Ice Warning 10.6F - - 32F 65 0% - - 100% 0 mhos 0 - None None - -
12/10/2016 01:58 Ice Warning 10.6F - - 32F 65 0% - - 100% 0 mhos 0 - None None - -
12/10/2016 01:53 Ice Warning 10.4F - - 32F 60 0% - - 100% 0 mhos 0 - None None - -
12/10/2016 01:43 Ice Warning 10.2F - - 32F 65 0% - - 100% 0 mhos 0 - None None - -
12/10/2016 01:42 Ice Warning 10.2F - - 32F 65 0% - - 100% 0 mhos 0 - None None - -
12/10/2016 01:32 Ice Warning 10.2F - - 32F 65 0% - - 100% 0 mhos 0 - None None - -
12/10/2016 01:28 Ice Warning 10.0F - - 32F 65 0% - - 100% 0 mhos 0 - None None - -
12/10/2016 01:22 Ice Warning 10.0F - - 32F 60 0% - - 100% 0 mhos 0 - Yes - - -
12/10/2016 01:13 Ice Warning 10.2F - - 32F 70 0% - - 100% 0 mhos 0 - None None - -
Date/Time
(MST)
Sf
Temp Chem Water Layer Surface Precipitation
Sfc Pvt Sub Frz Factor Pct Dpth DpthThk IcePct Cond Salin FI Type Intens Accum Rate
12/10/2016 01:12 Ice Warning 10.4F - - 32F 70 0% - - 100% 0 mhos 0 - Yes - - -
12/10/2016 01:02 Ice Warning 11.1F - - 32F 70 0% - - 100% 0 mhos 0 - None None - -
12/10/2016 00:58 Ice Warning 11.3F - - 32F 70 0% - - 100% 0 mhos 0 - None None - -
12/10/2016 00:52 Ice Warning 11.5F - - 32F 70 0% - - 100% 0 mhos 0 - None None - -
12/10/2016 00:43 Ice Warning 11.3F - - 32F 70 0% - - 100% 0 mhos 0 - None None - -
12/10/2016 00:42 Ice Warning 11.3F - - 32F 70 0% - - 100% 0 mhos 0 - None None - -
12/10/2016 00:32 Ice Warning 10.9F - - 32F 70 0% - - 100% 0 mhos 0 - None None - -
12/10/2016 00:28 Ice Warning 10.9F - - 32F 70 0% - - 100% 0 mhos 0 - None None - -
12/10/2016 00:22 Ice Warning 10.9F - - 32F 70 0% - - 100% 0 mhos 0 - None None - -
12/10/2016 00:13 Ice Warning 10.8F - - 32F 70 0% - - 100% 0 mhos 0 - None None - -
12/10/2016 00:12 Ice Warning 10.8F - - 32F 70 0% - - 100% 0 mhos 0 - None None - -
12/10/2016 00:02 Ice Warning 10.4F - - 32F 70 0% - - 100% 0 mhos 0 - None None - -
12/09/2016 23:58 Ice Warning 10.4F - - 32F 70 0% - - 100% 0 mhos 0 - None None - -
12/09/2016 23:52 Ice Warning 10.2F - - 32F 65 0% - - 100% 0 mhos 0 - None None - -
12/09/2016 23:43 Ice Warning 10.0F - - 32F 65 0% - - 100% 0 mhos 0 - None None - -
Date/Time
(MST)
Sf
Temp Chem Water Layer Surface Precipitation
Sfc Pvt Sub Frz Factor Pct Dpth DpthThk IcePct Cond Salin FI Type Intens Accum Rate
12/09/2016 23:42 Ice Warning 9.9F - - 32F 65 0% - - 100% 0 mhos 0 - None None - -
12/09/2016 23:32 Ice Warning 10.2F - - 32F 65 0% - - 100% 0 mhos 0 - None None - -
12/09/2016 23:28 Ice Warning 10.2F - - 32F 65 0% - - 100% 0 mhos 0 - None None - -
12/09/2016 23:22 Ice Warning 9.9F - - 32F 65 0% - - 100% 0 mhos 0 - None None - -
12/09/2016 23:13 Ice Warning 10.0F - - 32F 70 0% - - 100% 0 mhos 0 - None None - -
12/09/2016 23:12 Ice Warning 10.0F - - 32F 65 0% - - 100% 0 mhos 0 - None None - -
12/09/2016 23:02 Ice Warning 9.7F - - 32F 65 0% - - 100% 0 mhos 0 - None None - -
12/09/2016 22:58 Ice Warning 9.7F - - 32F 60 0% - - 100% 0 mhos 0 - None None - -
12/09/2016 22:51 Ice Warning 9.7F - - 32F 65 0% - - 100% 0 mhos 0 - None None - -
12/09/2016 22:43 Ice Warning 9.9F - - 32F 65 0% - - 100% 0 mhos 0 - None None - -
12/09/2016 22:41 Ice Warning 10.0F - - 32F 65 0% - - 100% 0 mhos 0 - None None - -
12/09/2016 22:31 Ice Warning 10.2F - - 32F 70 0% - - 100% 0 mhos 0 - None None - -
12/09/2016 22:28 Ice Warning 10.4F - - 32F 70 0% - - 100% 0 mhos 0 - None None - -
12/09/2016 22:21 Ice Warning 10.9F - - 32F 65 0% - - 100% 0 mhos 0 - None None - -
12/09/2016 22:13 Ice Warning 11.3F - - 32F 65 0% - - 100% 0 mhos 0 - None None - -
Date/Time
(MST)
Sf
Temp Chem Water Layer Surface Precipitation
Sfc Pvt Sub Frz Factor Pct Dpth DpthThk IcePct Cond Salin FI Type Intens Accum Rate
12/09/2016 22:11 Ice Warning 11.3F - - 32F 65 0% - - 100% 0 mhos 0 - None None - -
12/09/2016 22:01 Ice Warning 11.3F - - 32F 65 0% - - 100% 0 mhos 0 - None None - -
12/09/2016 21:58 Ice Warning 11.5F - - 32F 65 0% - - 100% 0 mhos 0 - None None - -
12/09/2016 21:51 Ice Warning 11.3F - - 32F 65 0% - - 100% 0 mhos 0 - None None - -
12/09/2016 21:43 Ice Warning 11.5F - - 32F 65 0% - - 100% 0 mhos 0 - None None - -
12/09/2016 21:41 Ice Warning 11.5F - - 32F 65 0% - - 100% 0 mhos 0 - None None - -
12/09/2016 21:31 Ice Warning 11.3F - - 32F 65 0% - - 100% 0 mhos 0 - Yes - - -
12/09/2016 21:28 Ice Warning 11.3F - - 32F 65 0% - - 100% 0 mhos 0 - Yes - - -
12/09/2016 21:21 Ice Warning 11.3F - - 32F 70 0% - - 100% 0 mhos 0 - Yes - - -
12/09/2016 21:13 Ice Warning 11.3F - - 32F 75 0% - - 100% 0 mhos 0 - None None - -
12/09/2016 21:11 Ice Warning 11.3F - - 32F 75 0% - - 100% 0 mhos 0 - None None - -
12/09/2016 21:01 Ice Warning 11.1F - - 32F 75 0% - - 100% 0 mhos 0 - None None - -
12/09/2016 20:58 Ice Warning 11.1F - - 32F 75 0% - - 100% 0 mhos 0 - Yes - - -
12/09/2016 20:51 Ice Warning 10.9F - - 32F 75 0% - - 100% 0 mhos 0 - None None - -
12/09/2016 20:43 Ice Warning 10.9F - - 32F 75 0% - - 100% 0 mhos 0 - None None - -
Date/Time
(MST)
Sf
Temp Chem Water Layer Surface Precipitation
Sfc Pvt Sub Frz Factor Pct Dpth DpthThk IcePct Cond Salin FI Type Intens Accum Rate
12/09/2016 20:41 Ice Warning 10.9F - - 32F 75 0% - - 100% 0 mhos 0 - None None - -
12/09/2016 20:31 Ice Warning 10.8F - - 32F 75 0% - - 100% 0 mhos 0 - Yes - - -
12/09/2016 20:28 Ice Warning 10.9F - - 32F 70 0% - - 100% 0 mhos 0 - Yes - - -
12/09/2016 20:21 Ice Warning 10.9F - - 32F 75 0% - - 100% 0 mhos 0 - Yes - - -
12/09/2016 20:14 Ice Warning 10.9F - - 32F 70 0% - - 100% 0 mhos 0 - Yes - - -
12/09/2016 20:10 Ice Warning 11.3F - - 32F 70 0% - - 100% 0 mhos 0 - Yes - - -
12/09/2016 20:00 Ice Warning 11.1F - - 32F 75 0% - - 100% 0 mhos 0 - Yes - - -
12/09/2016 19:58 Ice Warning 11.1F - - 32F 75 0% - - 100% 0 mhos 0 - Yes - - -
12/09/2016 19:50 Ice Warning 11.1F - - 32F 90 0% - - 100% 0 mhos 0 - Yes - - -
12/09/2016 19:44 Ice Warning 11.1F - - 32F 80 0% - - 100% 0 mhos 0 - Yes - - -
12/09/2016 19:40 Ice Warning 10.9F - - 32F 85 0% - - 100% 0 mhos 0 - Yes - - -
12/09/2016 19:30 Ice Warning 11.1F - - 32F 85 0% - - 100% 0 mhos 0 - Yes - - -
12/09/2016 19:28 Ice Warning 11.1F - - 32F 90 0% - - 100% 0 mhos 0 - Yes - - -
12/09/2016 19:20 Ice Warning 11.3F - - 32F 80 0% - - 100% 0 mhos 0 - Yes - - -
12/09/2016 19:14 Ice Warning 11.1F - - 32F 80 0% - - 100% 0 mhos 0 - Yes - - -
Date/Time
(MST)
Sf
Temp Chem Water Layer Surface Precipitation
Sfc Pvt Sub Frz Factor Pct Dpth DpthThk IcePct Cond Salin FI Type Intens Accum Rate
12/09/2016 19:10 Ice Warning 11.1F - - 32F 85 0% - - 100% 0 mhos 0 - Yes - - -
12/09/2016 19:00 Ice Warning 10.9F - - 32F 80 0% - - 100% 0 mhos 0 - Yes - - -
12/09/2016 18:58 Ice Warning 10.9F - - 32F 75 0% - - 100% 0 mhos 0 - Yes - - -
12/09/2016 18:50 Ice Warning 10.9F - - 32F 5 0% - - 100% 0 mhos 0 - Yes - - -
12/09/2016 18:43 Ice Warning 11.3F - - 32F 5 0% - - 100% 0 mhos 0 - Yes - - -
12/09/2016 18:40 Ice Warning 11.1F - - 32F 5 0% - - 100% 0 mhos 0 - Yes - - -
12/09/2016 18:30 Ice Warning 10.4F - - 32F 5 0% - - 100% 0 mhos 0 - None None - -
12/09/2016 18:28 Ice Warning 10.4F - - 32F 5 0% - - 100% 0 mhos 0 - None None - -
12/09/2016 18:20 Ice Warning 10.0F - - 32F 5 0% - - 100% 0 mhos 0 - None None - -
12/09/2016 18:13 Ice Warning 10.0F - - 32F 5 0% - - 100% 0 mhos 0 - Yes - - -
12/09/2016 18:10 Ice Warning 10.0F - - 32F 5 0% - - 100% 0 mhos 0 - None None - -
12/09/2016 18:00 Ice Warning 10.2F - - 32F 5 0% - - 100% 0 mhos 0 - None None - -
12/09/2016 17:58 Ice Warning 10.2F - - 32F 5 0% - - 100% 0 mhos 0 - None None - -
12/09/2016 17:50 Ice Warning 10.4F - - 32F 5 0% - - 100% 0 mhos 0 - None None - -
12/09/2016 17:43 Ice Warning 10.6F - - 32F 5 0% - - 100% 0 mhos 0 - None None - -
Date/Time
(MST)
Sf
Temp Chem Water Layer Surface Precipitation
Sfc Pvt Sub Frz Factor Pct Dpth DpthThk IcePct Cond Salin FI Type Intens Accum Rate
12/09/2016 17:40 Ice Warning 10.8F - - 32F 5 0% - - 100% 0 mhos 0 - None None - -
12/09/2016 17:30 Ice Warning 10.9F - - 32F 5 0% - - 100% 0 mhos 0 - None None - -
12/09/2016 17:28 Ice Warning 10.9F - - 32F 5 0% - - 100% 0 mhos 0 - None None - -
12/09/2016 17:19 Ice Warning 11.1F - - 32F 5 0% - - 100% 0 mhos 0 - None None - -
12/09/2016 17:14 Ice Warning 11.3F - - 32F 5 0% - - 100% 0 mhos 0 - None None - -
12/09/2016 17:09 Ice Warning 11.3F - - 32F 5 0% - - 100% 0 mhos 0 - None None - -
12/09/2016 16:59 Ice Warning 11.7F - - 32F 5 0% - - 100% 0 mhos 0 - None None - -
12/09/2016 16:58 Ice Warning 11.8F - - 32F 5 0% - - 100% 0 mhos 0 - None None - -
12/09/2016 16:49 Ice Warning 11.8F - - 32F 5 0% - - 100% 0 mhos 0 - None None - -
12/09/2016 16:44 Ice Warning 12.2F - - 32F 5 0% - - 100% 0 mhos 0 - None None - -
12/09/2016 16:39 Ice Warning 12.4F - - 32F 5 0% - - 100% 0 mhos 0 - None None - -
12/09/2016 16:29 Ice Warning 13.1F - - 32F 5 0% - - 100% 0 mhos 0 - None None - -
12/09/2016 16:29 Ice Warning 13.3F - - 32F 5 0% - - 100% 0 mhos 0 - None None - -
12/09/2016 16:19 Ice Warning 13.1F - - 32F 5 0% - - 100% 0 mhos 0 - None None - -
12/09/2016 16:14 Ice Warning 13.3F - - 32F 5 0% - - 100% 0 mhos 0 - None None - -
Date/Time
(MST)
Sf
Temp Chem Water Layer Surface Precipitation
Sfc Pvt Sub Frz Factor Pct Dpth DpthThk IcePct Cond Salin FI Type Intens Accum Rate
12/09/2016 16:09 Ice Warning 13.3F - - 32F 5 0% - - 100% 0 mhos 0 - None None - -
12/09/2016 15:59 Ice Warning 14.0F - - 32F 5 0% - - 100% 0 mhos 0 - None None - -
12/09/2016 15:59 Ice Warning 14.0F - - 32F 5 0% - - 100% 0 mhos 0 - None None - -
12/09/2016 15:49 Ice Warning 14.5F - - 32F 5 0% - - 100% 0 mhos 0 - None None - -
12/09/2016 15:44 Ice Warning 14.7F - - 32F 5 0% - - 100% 0 mhos 0 - None None - -
12/09/2016 15:39 Ice Warning 15.1F - - 32F 5 0% - - 100% 0 mhos 0 - None None - -
12/09/2016 15:29 Ice Warning 15.4F - - 32F 5 0% - - 100% 0 mhos 0 - None None - -
12/09/2016 15:28 Ice Warning 15.4F - - 32F 5 0% - - 100% 0 mhos 0 - None None - -
12/09/2016 15:19 Ice Warning 16.3F - - 32F 5 0% - - 100% 0 mhos 0 - None None - -
12/09/2016 15:13 Ice Warning 16.2F - - 32F 5 0% - - 100% 0 mhos 0 - None None - -
12/09/2016 15:09 Ice Warning 16.5F - - 32F 5 0% - - 100% 0 mhos 0 - None None - -
12/09/2016 14:59 Ice Warning 16.9F - - 32F 5 0% - - 100% 0 mhos 0 - None None - -
12/09/2016 14:58 Ice Warning 16.9F - - 32F 5 0% - - 100% 0 mhos 0 - None None - -
12/09/2016 14:49 Ice Warning 16.5F - - 32F 5 0% - - 100% 0 mhos 0 - None None - -
12/09/2016 14:44 Ice Warning 16.7F - - 32F 5 0% - - 100% 0 mhos 0 - None None - -
Date/Time
(MST)
Sf
Temp Chem Water Layer Surface Precipitation
Sfc Pvt Sub Frz Factor Pct Dpth DpthThk IcePct Cond Salin FI Type Intens Accum Rate
12/09/2016 14:39 Ice Warning 17.1F - - 32F 5 0% - - 100% 0 mhos 0 - None None - -
12/09/2016 14:28 Ice Warning 17.8F - - 32F 5 0% - - 100% 0 mhos 0 - None None - -
12/09/2016 14:28 Ice Warning 17.8F - - 32F 5 0% - - 100% 0 mhos 0 - None None - -
12/09/2016 14:18 Ice Warning 18.1F - - 32F 5 0% - - 100% 0 mhos 0 - None None - -
12/09/2016 14:14 Ice Warning 18.3F - - 32F 30 0% - - 100% 0 mhos 0 - None None - -
12/09/2016 14:08 Ice Warning 19.2F - - 32F 45 0% - - 100% 0 mhos 0 - None None - -
12/09/2016 13:59 Ice Warning 19.0F - - 32F 70 0% - - 100% 0 mhos 0 - None None - -
12/09/2016 13:58 Ice Warning 19.0F - - 32F 70 0% - - 100% 0 mhos 0 - None None - -
12/09/2016 13:48 Ice Warning 18.7F - - 32F 95 0% - - 100% 0 mhos 0 - None None - -
12/09/2016 13:44 Ice Warning 18.3F - - 32F 80 0% - - 100% 0 mhos 0 - None None - -
12/09/2016 13:38 Ice Warning 18.1F - - 32F 85 0% - - 100% 0 mhos 0 - None None - -
12/09/2016 13:29 Ice Warning 18.3F - - 32F 90 0% - - 100% 0 mhos 0 - None None - -
12/09/2016 13:28 Ice Warning 18.3F - - 32F 90 0% - - 100% 0 mhos 0 - None None - -
Change End Date:

Copyright © 1998-2015 Vaisala, Inc.
All Rights Reserved
Send comments about the data to:
SCAN Web ® is a registered trademark of Vaisala, Inc.
SCAN Web Version 6.0